x

Rochester, Ny (rprn6) Weather Station

2:50pm - Sun 26th Mar 2017 All times are CDT. -5 hours from GMT.

  • Wind
    14mph, 18mph gusts
  • Air Temp 47°f
  • Sea Pressure 1020mb
  • Rochester, Ny
  • Rochester, Ny

More Historic Weather Station data

Upgrade to MSW Pro to gain access to the past 30 days of data for over 8000 Wavebouys and Weather Stations around the globe.

Join Pro

Comparision Forecast

View Surf forecast
   
Sun 03/26 2:50pm 14 18 mph 1020mb 47f
2:40pm 16 18 mph 1020mb 48f
2:30pm 16 18 mph 1020mb 47f
2:20pm 14 18 mph 1020.3mb 47f
2:10pm 16 22 mph 1020.7mb 47f
2:00pm 18 21 mph 1020.7mb 48f
1:50pm 18 21 mph 1021mb 48f
1:40pm 15 18 mph 1021mb 47f
1:30pm 20 22 mph 1021mb 48f
1:20pm 16 21 mph 1021.3mb 48f
1:10pm 18 22 mph 1021.3mb 48f
1:00pm 15 20 mph 1021.7mb 49f
12:50pm 16 20 mph 1021.7mb 48f
12:40pm 16 20 mph 1022mb 48f
12:30pm 15 21 mph 1022mb 48f
12:20pm 17 23 mph 1022mb 48f
12:10pm 20 22 mph 1022.4mb 47f
12:00pm 15 21 mph 1022.4mb 46f
11:50am 15 24 mph 1022.7mb 47f
11:40am 14 18 mph 1023mb 46f
11:30am 15 20 mph 1023mb 46f
11:20am 16 22 mph 1023.4mb 45f
11:10am 16 18 mph 1023.4mb 44f
11:00am 15 22 mph 1023.4mb 44f
10:50am 16 20 mph 1023.4mb 43f
10:40am 16 23 mph 1023.7mb 43f
10:30am 16 23 mph 1023.7mb 42f
10:20am 16 20 mph 1024mb 42f
10:10am 17 20 mph 1024mb 42f
10:00am 16 20 mph 1024mb 41f
9:50am 17 23 mph 1024.4mb 41f
9:40am 17 22 mph 1024.4mb 41f
9:30am 20 23 mph 1024.4mb 41f
9:20am 16 21 mph 1024.4mb 40f
9:10am 16 20 mph 1024.4mb 40f
9:00am 17 18 mph 1024.4mb 40f
8:50am 15 18 mph 1024.7mb 39f
8:40am 15 18 mph 1024.7mb 39f
8:30am 14 17 mph 1025.1mb 39f
8:20am 15 18 mph 1025.1mb 39f
8:10am 13 18 mph 1025.4mb 39f
8:00am 15 17 mph 1025.4mb 38f
7:50am 14 16 mph 1025.4mb 38f
7:40am 14 16 mph 1025.7mb 38f
7:30am 15
mph
1026.1mb 38f
7:20am 14 16 mph 1025.7mb 37f
7:10am 15 16 mph 1025.7mb 37f
7:00am 15 16 mph 1025.7mb 37f
6:50am 15 16 mph 1026.1mb 36f
6:40am 15
mph
1026.1mb 36f
6:30am 15 18 mph 1026.4mb 36f
6:20am 16 20 mph 1026.1mb 36f
6:10am 18 22 mph 1026.1mb 36f
6:00am 20 22 mph 1026.4mb 36f
5:50am 20 22 mph 1026.4mb 36f
5:40am 18 21 mph 1026.8mb 36f
5:30am 17 21 mph 1027.1mb 36f
5:20am 18 22 mph 1026.8mb 36f
5:10am 20 24 mph 1026.8mb 36f
5:00am 21 23 mph 1026.8mb 36f
4:50am 16 21 mph 1027.1mb 36f
4:40am 17 22 mph 1027.1mb 36f
4:30am 18 20 mph 1026.8mb 36f
4:20am 15 18 mph 1027.1mb 36f
4:10am 15 18 mph 1027.1mb 36f
4:00am 16 18 mph 1027.1mb 36f
3:50am 15 18 mph 1027.1mb 36f
3:40am 16 18 mph 1027.1mb 36f
3:30am 15 17 mph 1027.4mb 36f
3:20am 15 16 mph 1027.4mb 36f
3:10am 14 16 mph 1027.4mb 36f
3:00am 11 14 mph 1027.8mb 36f
2:50am 11 13 mph 1027.8mb 36f
2:40am 10 13 mph 1028.1mb 36f
2:30am 10 13 mph 1028.1mb 36f
2:20am 10 11 mph 1028.1mb 36f
2:10am 10 11 mph 1028.4mb 36f
2:00am 9 11 mph 1028.4mb 36f
1:50am 10 11 mph 1028.4mb 36f
1:40am 9 11 mph 1028.8mb 36f
1:30am 10 14 mph 1028.8mb 36f
1:20am 11 16 mph 1028.8mb 36f
1:10am 14 17 mph 1029.1mb 36f
12:00am 22 24 mph 1029.1mb 36f
Sat 03/25 11:50pm 20 23 mph 1029.1mb 36f
11:40pm 20 22 mph 1029.5mb 37f
11:30pm 20 23 mph 1029.5mb 37f
11:20pm 18 23 mph 1029.8mb 36f
11:10pm 18 22 mph 1029.8mb 37f
11:00pm 20 22 mph 1029.8mb 36f
10:50pm 18 23 mph 1030.1mb 36f
10:40pm 18 23 mph 1029.8mb 36f
10:30pm 20 23 mph 1029.8mb 36f
10:20pm 20 23 mph 1029.8mb 36f
10:10pm 21 23 mph 1030.1mb 36f
10:00pm 20 24 mph 1030.1mb 36f
9:50pm 21 24 mph 1030.1mb 36f
9:40pm 17 22 mph 1029.8mb 36f
9:30pm 18 21 mph 1030.1mb 36f
9:20pm 18 20 mph 1030.5mb 36f
9:10pm 15 20 mph 1030.5mb 36f
8:00pm 20 22 mph 1030.5mb 36f
7:50pm 17 20 mph 1030.5mb 36f
7:40pm 16 20 mph 1030.5mb 36f
7:30pm 17 21 mph 1030.5mb 36f
7:20pm 16 21 mph 1030.5mb 36f
7:10pm 17 20 mph 1030.1mb 36f
7:00pm 16 20 mph 1030.1mb 36f
6:50pm 17 21 mph 1030.1mb 36f
6:40pm 16 21 mph 1030.1mb 36f
6:30pm 16 21 mph 1029.8mb 36f
6:20pm 16 21 mph 1029.8mb 36f
6:10pm 17 21 mph 1029.5mb 36f
6:00pm 18 21 mph 1029.5mb 36f
5:50pm 17 21 mph 1029.1mb 36f
5:40pm 17 20 mph 1029.1mb 36f
5:30pm 16 18 mph 1029.5mb 36f
5:20pm 15 18 mph 1029.5mb 36f
5:10pm 15 17 mph 1029.5mb 36f
5:00pm 16 21 mph 1029.5mb 36f
4:50pm 16 18 mph 1029.5mb 36f
4:40pm 16 20 mph 1029.5mb 36f
4:30pm 17 20 mph 1029.1mb 36f
4:20pm 16 20 mph 1029.5mb 36f
4:10pm 16 18 mph 1029.1mb 37f
4:00pm 16 20 mph 1029.5mb 37f
3:50pm 16 20 mph 1029.1mb 37f
3:40pm 16 20 mph 1029.1mb 37f
3:30pm 16 20 mph 1029.1mb 37f
3:20pm 16 22 mph 1028.8mb 36f
3:10pm 18 22 mph 1028.8mb 36f
3:00pm 17 22 mph 1028.8mb 36f
2:50pm 18 22 mph 1028.8mb 36f
2:40pm 18 21 mph 1028.8mb 36f
2:30pm 16 21 mph 1028.8mb 36f
2:20pm 17 21 mph 1028.4mb 36f
2:10pm 17 20 mph 1028.8mb 36f
2:00pm 14 17 mph 1028.8mb 36f
1:50pm 15 18 mph 1029.1mb 36f
1:40pm 15 17 mph 1029.1mb 36f
1:30pm 15 16 mph 1029.1mb 36f
1:20pm 15 17 mph 1029.1mb 36f
1:10pm 14 17 mph 1029.1mb 36f
1:00pm 16 18 mph 1028.8mb 36f
12:50pm 15 16 mph 1029.1mb 36f
12:40pm 14 18 mph 1029.1mb 35f
12:30pm 16 20 mph 1028.4mb 35f
12:20pm 16 20 mph 1028.8mb 35f
12:10pm 14 21 mph 1028.8mb 35f
2:00am 11 15 mph 1022.4mb 37f
1:50am 11 14 mph 1022mb 37f
1:40am 13 15 mph 1022mb 37f
1:30am 10 11 mph 1022mb 37f
1:20am 9 11 mph 1022mb 37f
1:10am 8 9 mph 1022mb 37f
12:00am 7 9 mph 1021.3mb 38f
Fri 03/24 11:50pm 8 9 mph 1021mb 38f
11:40pm 8 9 mph 1021mb 39f
11:30pm 5 8 mph 1021.7mb 39f
11:20pm 7 8 mph 1021.3mb 39f
11:10pm 3 7 mph 1021mb 39f
11:00pm 6 7 mph 1021mb 39f
10:50pm 5 7 mph 1021.3mb 39f
10:40pm 6 9 mph 1021.3mb 39f
10:30pm 8 9 mph 1021.3mb 39f
10:20pm 8 9 mph 1021mb 39f
10:10pm 5 6 mph 1020.7mb 39f
10:00pm 5 6 mph 1020.3mb 40f
9:50pm 3
mph
1020mb 40f
9:40pm  -  2 mph 1020mb 39f
9:30pm  -  1 mph 1020.3mb 40f
9:20pm 2 8 mph 1020.3mb 40f
9:10pm 8 10 mph 1020mb 40f
9:00pm 9 10 mph 1020.3mb 40f
8:50pm 8
mph
1020mb 41f
8:40pm 5 6 mph 1019.6mb 41f
8:30pm 5 6 mph 1019.6mb 41f
8:20pm 2 3 mph 1019.6mb 42f
8:10pm 2
mph
1019mb 42f
8:00pm 2 3 mph 1019mb 42f
7:50pm 2 3 mph 1019mb 42f
7:40pm 2 3 mph 1018.6mb 43f
7:30pm 2
mph
1018.3mb 43f
7:20pm 1 2 mph 1017.9mb 43f
7:10pm 2 3 mph 1017.9mb 43f
7:00pm 2 3 mph 1017.6mb 43f
6:50pm 2 3 mph 1017.6mb 43f
6:40pm 2 5 mph 1017.3mb 43f
6:30pm 3
mph
1016.9mb 43f
6:20pm 3 5 mph 1016.9mb 43f
6:10pm 3
mph
1016.6mb 43f
6:00pm 3
mph
1016.3mb 43f
5:50pm 2
mph
1016.3mb -
5:40pm 1
mph
1015.9mb -
5:30pm  -  2 mph 1015.9mb -
5:20pm 1 2 mph 1015.6mb -
5:10pm  -  1 mph 1015.6mb -
5:00pm  -  3 mph 1015.2mb -
4:50pm 2 5 mph 1015.2mb -
4:40pm 3 8 mph 1014.9mb -
4:30pm 6 9 mph 1014.6mb -
4:20pm 10 16 mph 1014.6mb -
4:10pm 10 15 mph 1014.6mb -
4:00pm 13 15 mph 1014.2mb -
3:50pm 9 15 mph 1014.2mb 59f
3:40pm 11 17 mph 1014.2mb 59f
3:30pm 13 16 mph 1014.2mb 58f
3:20pm 9 11 mph 1014.6mb 53f
3:10pm 2 7 mph 1014.6mb 49f
3:00pm 7 8 mph 1014.6mb 47f
2:50pm 7
mph
1014.9mb 45f
2:40pm 7 8 mph 1014.9mb 44f
2:30pm 8 9 mph 1014.9mb 42f
2:20pm 8
mph
1015.2mb 42f
2:10pm 7 8 mph 1015.2mb 42f
2:00pm 6
mph
1015.2mb 41f
1:50pm 5
mph
1015.2mb 40f
1:40pm 2 9 mph 1015.6mb 40f
1:30pm 8 10 mph 1015.6mb 40f
1:20pm 9 10 mph 1015.9mb 40f
1:10pm 9 10 mph 1015.9mb 43f
1:00pm 10 11 mph 1015.9mb 44f
12:50pm 6 8 mph 1015.9mb 51f
12:40pm 2 3 mph 1016.3mb 52f
12:30pm 3 7 mph 1016.3mb 51f
12:20pm 6 10 mph 1016.3mb 51f
12:10pm 8 13 mph 1016.3mb 50f
12:00pm 9 14 mph 1016.3mb 49f
11:50am 8 14 mph 1016.6mb 49f
11:40am 11 16 mph 1016.6mb 48f
11:30am 10 18 mph 1016.6mb 47f
11:20am 11 17 mph 1016.9mb 47f
11:10am 8 14 mph 1017.3mb 46f
11:00am 8 17 mph 1017.6mb 45f
10:50am 9 20 mph 1017.6mb 45f
10:40am 13 17 mph 1017.9mb 44f
10:30am 11 16 mph 1017.9mb 44f
10:20am 15 18 mph 1018.3mb 43f
10:10am 13 21 mph 1018.3mb 43f
10:00am 13 18 mph 1018.6mb 42f
9:50am 13 18 mph 1018.6mb 41f
9:40am 13 16 mph 1019mb 41f
9:30am 13 18 mph 1019mb 40f
9:20am 13 16 mph 1019.3mb 39f
9:10am 10 18 mph 1019.3mb 39f
9:00am 13 17 mph 1019.3mb 38f
8:50am 13 21 mph 1019.6mb 37f
8:40am 13 18 mph 1020mb 37f
8:30am 14 18 mph 1020mb 37f
8:20am 13 20 mph 1020.3mb 37f
8:10am 14 20 mph 1020.7mb 37f
6:00am 14 20 mph 1022.4mb 41f
5:50am 14 20 mph 1022.7mb 41f
5:40am 13 17 mph 1022.4mb 41f
5:30am 13 18 mph 1022.4mb 42f
5:20am 13 16 mph 1022.4mb 42f
5:10am 15 22 mph 1023mb 42f
5:00am 13 18 mph 1023mb 42f
4:50am 13 17 mph 1022.7mb 41f
4:40am 11 16 mph 1022.7mb 41f
4:30am 14 17 mph 1022mb 40f
4:20am 13 18 mph 1022mb 40f
4:10am 15 20 mph 1022.4mb 40f
4:00am 14 16 mph 1022.4mb 39f
3:50am 11 17 mph 1022.7mb 39f
3:40am 11 17 mph 1022.7mb 39f
3:30am 13 15 mph 1022.7mb 39f
3:20am 13 14 mph 1022.7mb 39f
3:10am 10 11 mph 1023.4mb 39f
3:00am 10 14 mph 1023.7mb 39f
2:50am 11 15 mph 1023.4mb 38f
2:40am 9 11 mph 1023.7mb 38f
2:30am 7 11 mph 1024.4mb 37f
2:20am 9 10 mph 1024.4mb 37f
2:10am 9 10 mph 1024.4mb 37f
2:00am 8 10 mph 1025.1mb 36f
1:50am 7 8 mph 1025.1mb 36f
1:40am 7 9 mph 1025.4mb 36f
1:30am 7 8 mph 1025.7mb 36f
1:20am 7 9 mph 1026.1mb 35f
1:10am 7 10 mph 1026.1mb 35f
1:00am 8 11 mph 1025.7mb 35f
12:50am 8 10 mph 1026.1mb 34f
12:40am 7 10 mph 1026.1mb 34f
12:30am 9 11 mph 1026.1mb 34f
12:20am 10 13 mph 1026.4mb 34f
12:10am 11 14 mph 1026.4mb 34f
12:00am 13 14 mph 1026.8mb 34f
Thu 03/23 11:50pm 8 10 mph 1027.4mb 34f
11:40pm 8 11 mph 1028.1mb 34f
11:30pm 9 13 mph 1027.8mb 34f
11:20pm 9 14 mph 1028.1mb 34f
11:10pm 8 13 mph 1027.8mb 33f
11:00pm 10 14 mph 1028.1mb 33f
10:50pm 13 15 mph 1027.8mb 33f
10:40pm 10 14 mph 1028.4mb 34f
10:30pm 14 16 mph 1028.4mb 34f
10:20pm 15 17 mph 1028.8mb 33f
10:10pm 14 16 mph 1029.1mb 34f
10:00pm 13 15 mph 1029.8mb 34f
9:50pm 13 14 mph 1030.1mb 33f
9:40pm 13 16 mph 1030.5mb 33f
9:30pm 13 14 mph 1030.8mb 33f
9:20pm 11 15 mph 1031.2mb 34f
9:10pm 11 15 mph 1031.5mb 34f
9:00pm 13 14 mph 1031.5mb 34f
8:50pm 10 13 mph 1031.8mb 34f
8:40pm 13 14 mph 1031.8mb 34f
8:30pm 11
mph
1031.8mb 34f
8:20pm 10 11 mph 1031.8mb 34f
8:10pm 9 11 mph 1031.8mb 33f
8:00pm 9 10 mph 1031.8mb 33f
7:50pm 10 14 mph 1031.8mb 32f
7:40pm 13 14 mph 1031.8mb 32f
7:30pm 10 14 mph 1031.8mb 32f
7:20pm 14 17 mph 1032.2mb 32f
7:10pm 16 17 mph 1032.2mb 33f
7:00pm 15 17 mph 1032.2mb 33f
6:50pm 16 17 mph 1032.5mb 33f
6:40pm 16 17 mph 1032.8mb 33f
6:30pm 15 17 mph 1032.8mb 32f
6:20pm 16 17 mph 1032.5mb 32f
6:10pm 15 17 mph 1032.5mb 32f
5:00pm 13 15 mph 1032.8mb 32f
4:50pm 11 14 mph 1032.8mb 32f
4:40pm 10 13 mph 1032.8mb 33f
4:30pm 10 11 mph 1033.2mb 32f
4:20pm 10 14 mph 1033.5mb 32f
4:10pm 10 11 mph 1033.5mb 32f
4:00pm 9 10 mph 1033.5mb 32f
3:50pm 9 10 mph 1033.5mb 32f
3:40pm 9 10 mph 1033.5mb 32f
3:30pm 9 10 mph 1033.9mb 32f
3:20pm 9
mph
1033.9mb 31f
3:10pm 8
mph
1034.2mb 31f
3:00pm 8 9 mph 1034.2mb 31f
2:50pm 8 9 mph 1034.5mb 31f
2:40pm 8 9 mph 1034.5mb 31f
2:30pm 7 8 mph 1034.5mb 31f
2:20pm 8
mph
1034.9mb 30f
2:10pm 7 8 mph 1034.9mb 30f
2:00pm 7 10 mph 1035.2mb 30f
1:50pm 7 8 mph 1035.2mb 30f
1:40pm 8 10 mph 1035.6mb 30f
1:30pm 8 9 mph 1035.6mb 29f
1:20pm 7 9 mph 1036.2mb 29f
1:10pm 7 8 mph 1036.2mb 29f
1:00pm 7 8 mph 1036.2mb 29f
12:50pm 7 8 mph 1036.6mb 29f
12:40pm 6 7 mph 1036.6mb 29f
12:30pm 6 7 mph 1036.6mb 29f
12:20pm 5 7 mph 1036.9mb 29f
12:10pm 6 8 mph 1036.9mb 28f
12:00pm 6 7 mph 1036.9mb 28f
11:50am 5 6 mph 1036.9mb 28f
11:40am 6 8 mph 1037.3mb 28f
11:30am 6 8 mph 1037.3mb 28f
11:20am 7 8 mph 1037.3mb 28f
11:10am 5 7 mph 1037.6mb 28f
11:00am 6
mph
1037.6mb 28f
10:50am 6 7 mph 1037.3mb 28f
10:40am 6 7 mph 1037.6mb 28f
10:30am 3 6 mph 1037.9mb 28f
10:20am 6 7 mph 1037.9mb 27f
10:10am 3 6 mph 1037.9mb 27f
10:00am 3 5 mph 1037.9mb 28f
9:50am 2 6 mph 1037.9mb 28f
9:40am 2 6 mph 1037.9mb 27f
9:30am 2 7 mph 1037.9mb 27f
9:20am 3 6 mph 1038.3mb 27f
9:10am 3 5 mph 1037.9mb 27f
9:00am 3 6 mph 1038.3mb 27f
8:50am 5 6 mph 1037.9mb 27f
8:40am 5 7 mph 1037.9mb 26f
8:30am 6 9 mph 1037.9mb 26f
8:20am 6 7 mph 1037.9mb 26f
8:10am 6 8 mph 1037.9mb 26f
8:00am 7 8 mph 1037.9mb 25f
7:50am 6 8 mph 1037.6mb 25f
7:40am 6 8 mph 1037.6mb 24f
7:30am 7 8 mph 1037.9mb 24f
7:20am 6 8 mph 1037.6mb 23f
7:10am 6 8 mph 1037.3mb 23f
7:00am 6 8 mph 1037.3mb 22f
6:50am 6 8 mph 1036.9mb 22f
6:40am 6 7 mph 1037.3mb 21f
6:30am 6 7 mph 1037.3mb 21f
6:20am 6 7 mph 1036.9mb 21f
6:10am 6 9 mph 1036.6mb 21f
6:00am 7 8 mph 1036.6mb 21f
5:50am 7 8 mph 1036.6mb 21f
5:40am 6 8 mph 1036.6mb 21f
5:30am 7 8 mph 1036.6mb 21f
5:20am 7 8 mph 1036.6mb 21f
5:10am 7 8 mph 1036.2mb 20f
5:00am 6 7 mph 1035.9mb 20f
4:50am 6 7 mph 1035.9mb 21f
4:40am 6 7 mph 1035.9mb 21f
4:30am 6 7 mph 1035.9mb 21f
4:20am 6 7 mph 1035.9mb 21f
4:10am 6 8 mph 1035.6mb 21f
4:00am 6 7 mph 1035.6mb 21f
3:50am 6 7 mph 1035.6mb 21f
3:40am 6 8 mph 1035.6mb 21f
3:30am 5 7 mph 1035.6mb 21f
3:20am 6 8 mph 1035.2mb 21f
3:10am 6 7 mph 1035.2mb 22f
3:00am 7 9 mph 1035.2mb 21f
2:50am 7 8 mph 1035.2mb 21f
2:40am 6 8 mph 1035.2mb 22f
2:30am 2 8 mph 1035.2mb 22f
2:20am 6 11 mph 1035.2mb 24f
2:10am 9 14 mph 1035.2mb 26f
2:00am 10 13 mph 1034.9mb 26f
1:50am 11 15 mph 1035.2mb 26f
1:40am 11 17 mph 1034.9mb 26f
1:30am 13 16 mph 1034.9mb 26f
1:20am 14 17 mph 1034.9mb 26f
1:10am 10 17 mph 1034.9mb 26f
1:00am 13 17 mph 1034.9mb 26f
12:50am 13 18 mph 1034.9mb 26f
12:40am 14 17 mph 1034.9mb 26f
12:30am 14 18 mph 1034.9mb 26f
12:20am 15 18 mph 1034.5mb 26f
12:10am 15 20 mph 1034.5mb 26f
12:00am 15 20 mph 1034.5mb 26f
Wed 03/22 11:50pm 15 18 mph 1034.5mb 26f
11:40pm 17 21 mph 1034.5mb 26f
11:30pm 15 21 mph 1034.5mb 26f
11:20pm 16 21 mph 1034.5mb 26f
11:10pm 11 20 mph 1034.5mb 26f
11:00pm 15 20 mph 1034.2mb 27f
10:50pm 15 22 mph 1034.2mb 26f
10:40pm 17 22 mph 1034.2mb 26f
10:30pm 18 23 mph 1034.2mb 26f
10:20pm 17 24 mph 1034.2mb 26f
10:10pm 15 25 mph 1034.2mb 27f
10:00pm 21 24 mph 1034.2mb 26f
9:50pm 15 20 mph 1034.2mb 27f
9:40pm 7 14 mph 1034.2mb 25f
9:30pm 8 14 mph 1034.2mb 24f
9:20pm 9 11 mph 1034.2mb 24f
9:10pm 8 11 mph 1034.2mb 24f
9:00pm 9 10 mph 1034.2mb 24f